Temp
-7 -7 -8 -8 -8 -8 -7 -8 -8 -8 -8 -7 -7 -7 -7 -7 -7 -8 -8 -8 -8 -8 -8 -8 -8 -8 -8 -8 -8 -8 -8 -9 -9 -9 -9 -9 -9 -10 -9 -10 -10 -10 -10
-7 -7 -8 -8 -8 -8 -7 -7 -8 -8 -8 -8 -8 -8 -8 -8 -8 -8 -8 -8 -8 -8 -8 -8 -8 -8 -8 -8 -9 -9 -9 -9 -9 -10 -9 -9 -10 -10 -10 -10 -10 -10 -10
-7 -7 -7 -8 -8 -8 -8 -8 -7 -7 -7 -7 -7 -8 -8 -8 -8 -8 -8 -8 -8 -8 -8 -8 -8 -8 -9 -9 -9 -9 -9 -9 -10 -10 -10 -10 -10 -10 -10 -10 -10 -10 -11
-7 -7 -8 -7 -8 -8 -8 -7 -7 -7 -7 -7 -7 -7 -8 -8 -8 -8 -8 -8 -8 -8 -8 -8 -9 -9 -9 -9 -9 -9 -9 -10 -10 -10 -10 -10 -10 -10 -10 -10 -11 -11 -11
-8 -8 -8 -8 -8 -8 -8 -8 -8 -8 -8 -8 -8 -8 -8 -8 -8 -8 -9 -9 -8 -8 -8 -8 -9 -9 -9 -9 -9 -10 -10 -10 -10 -10 -10 -10 -11 -10 -10 -11 -11 -11 -12
-9 -8 -8 -8 -8 -8 -8 -8 -8 -8 -8 -8 -8 -8 -8 -8 -8 -8 -9 -9 -9 -9 -9 -9 -9 -9 -9 -10 -10 -10 -10 -10 -10 -10 -10 -11 -11 -10 -11 -11 -11 -11 -12
-9 -9 -9 -8 -8 -8 -8 -8 -8 -8 -8 -8 -8 -8 -8 -8 -9 -9 -9 -9 -9 -9 -9 -9 -9 -10 -10 -10 -10 -10 -10 -10 -10 -11 -11 -11 -11 -10 -11 -11 -11 -12 -12
-10 -9 -9 -9 -9 -9 -8 -8 -8 -8 -8 -8 -8 -8 -8 -8 -9 -9 -9 -9 -9 -9 -9 -9 -9 -9 -10 -10 -11 -10 -10 -11 -11 -11 -10 -11 -10 -11 -11 -12 -11 -12 -12
-10 -10 -10 -10 -9 -9 -9 -9 -9 -8 -8 -8 -8 -8 -8 -8 -8 -9 -9 -9 -9 -9 -9 -9 -9 -9 -9 -10 -10 -10 -11 -10 -11 -11 -11 -11 -11 -11 -12 -12 -12 -12 -12
-11 -10 -10 -10 -10 -10 -9 -9 -9 -9 -9 -9 -9 -8 -8 -8 -8 -9 -9 -9 -9 -9 -9 -9 -9 -9 -10 -10 -11 -11 -11 -11 -11 -11 -10 -11 -11 -12 -12 -12 -12 -12 -13
-11 -11 -11 -11 -10 -10 -10 -10 -10 -9 -9 -9 -9 -9 -9 -9 -9 -9 -9 -9 -10 -10 -9 -9 -9 -10 -10 -10 -11 -11 -11 -11 -11 -11 -11 -11 -12 -12 -13 -13 -13 -13 -13
-11 -11 -11 -11 -11 -11 -11 -10 -10 -10 -10 -10 -10 -9 -9 -10 -9 -9 -10 -10 -10 -10 -10 -10 -10 -10 -11 -10 -11 -12 -12 -12 -11 -12 -12 -12 -12 -13 -13 -13 -13 -13 -14
-12 -12 -11 -11 -11 -11 -11 -11 -11 -11 -10 -10 -10 -10 -10 -10 -10 -10 -10 -10 -11 -10 -10 -10 -10 -11 -10 -10 -11 -12 -12 -12 -12 -12 -12 -12 -13 -13 -13 -13 -14 -14 -14
-13 -12 -12 -12 -11 -11 -11 -11 -11 -12 -11 -11 -11 -10 -10 -10 -10 -10 -10 -10 -10 -11 -11 -11 -11 -11 -11 -11 -11 -11 -12 -12 -12 -12 -12 -12 -13 -13 -13 -14 -14 -14 -14
-13 -13 -13 -12 -12 -12 -12 -12 -11 -11 -12 -12 -11 -11 -11 -11 -11 -11 -11 -11 -11 -11 -11 -11 -10 -11 -11 -11 -11 -12 -12 -13 -12 -12 -12 -13 -13 -13 -14 -14 -14 -14 -15
-14 -13 -13 -13 -13 -12 -12 -12 -12 -11 -12 -12 -11 -12 -12 -11 -12 -11 -11 -11 -11 -11 -11 -11 -11 -11 -11 -11 -11 -11 -12 -12 -12 -12 -13 -13 -13 -13 -14 -14 -14 -15 -15
-15 -15 -14 -14 -14 -13 -13 -13 -12 -13 -12 -12 -12 -12 -12 -12 -12 -12 -12 -12 -11 -11 -12 -12 -12 -12 -11 -11 -11 -12 -12 -12 -13 -12 -13 -13 -13 -14 -14 -14 -15 -15 -15
-15 -15 -15 -15 -15 -14 -14 -14 -13 -13 -13 -13 -13 -12 -12 -12 -12 -13 -13 -13 -13 -13 -13 -13 -13 -12 -12 -12 -12 -12 -13 -13 -13 -14 -14 -14 -14 -14 -14 -15 -15 -15 -16
-17 -16 -16 -16 -15 -15 -15 -15 -14 -14 -14 -14 -14 -14 -13 -14 -14 -14 -14 -14 -14 -14 -14 -14 -14 -14 -13 -13 -13 -13 -14 -14 -15 -14 -14 -15 -15 -15 -15 -15 -15 -16 -16
-22 -20 -19 -18 -16 -16 -15 -15 -15 -15 -14 -14 -14 -14 -15 -15 -15 -15 -16 -16 -15 -15 -15 -15 -15 -15 -15 -14 -15 -15 -15 -15 -15 -15 -15 -15 -15 -15 -15 -15 -16 -16 -16
-25 -24 -24 -23 -22 -21 -20 -18 -17 -17 -15 -15 -15 -15 -15 -15 -15 -16 -17 -17 -17 -16 -17 -17 -17 -16 -16 -15 -15 -16 -16 -16 -16 -16 -16 -16 -16 -16 -16 -16 -16 -16 -17
-25 -25 -25 -25 -24 -24 -24 -23 -22 -21 -20 -19 -17 -16 -16 -16 -15 -16 -16 -17 -18 -18 -18 -18 -18 -17 -17 -16 -16 -16 -16 -16 -16 -17 -17 -17 -17 -17 -17 -17 -17 -17 -18
-24 -24 -24 -24 -24 -24 -24 -24 -23 -23 -23 -23 -21 -19 -18 -18 -17 -16 -16 -17 -18 -18 -19 -19 -19 -18 -18 -17 -17 -17 -17 -17 -17 -17 -17 -17 -18 -18 -18 -18 -17 -17 -18
-24 -24 -24 -24 -23 -24 -24 -24 -23 -23 -23 -23 -23 -23 -22 -21 -19 -18 -18 -18 -19 -20 -21 -20 -20 -19 -18 -18 -18 -18 -18 -18 -18 -18 -18 -18 -18 -18 -18 -18 -18 -18 -19
-24 -24 -24 -24 -24 -23 -23 -23 -23 -23 -23 -23 -23 -23 -24 -23 -23 -22 -21 -21 -20 -20 -21 -21 -21 -21 -20 -20 -20 -20 -19 -19 -19 -19 -19 -19 -19 -19 -19 -19 -20 -20 -20
-24 -24 -24 -24 -24 -23 -23 -23 -23 -23 -23 -24 -23 -24 -24 -25 -25 -25 -24 -24 -24 -23 -23 -23 -21 -20 -20 -20 -19 -20 -20 -20 -20 -19 -19 -19 -20 -20 -20 -20 -20 -20 -19
Height
5818 5820 5822 5824 5825 5826 5828 5831 5834 5838 5841 5845 5847 5849 5850 5852 5853 5854 5854 5854 5855 5855 5855 5854 5854 5852 5852 5850 5849 5847 5845 5842 5839 5835 5831 5828 5823 5818 5814 5807 5800 5793 5785
5808 5811 5814 5815 5816 5818 5821 5823 5826 5829 5832 5835 5838 5840 5841 5843 5844 5845 5845 5845 5845 5846 5845 5846 5845 5843 5842 5841 5839 5837 5835 5832 5829 5826 5821 5818 5813 5808 5803 5797 5791 5783 5775
5798 5800 5802 5805 5807 5808 5810 5812 5815 5818 5820 5823 5825 5829 5831 5832 5833 5834 5834 5834 5835 5836 5836 5835 5835 5833 5832 5830 5828 5827 5825 5822 5819 5817 5812 5807 5803 5798 5793 5786 5780 5773 5765
5786 5788 5790 5793 5795 5797 5799 5801 5804 5807 5809 5811 5813 5816 5818 5819 5820 5821 5822 5823 5823 5824 5824 5823 5823 5821 5820 5818 5817 5816 5814 5811 5809 5806 5802 5797 5793 5788 5784 5776 5770 5762 5754
5772 5775 5777 5780 5783 5785 5788 5789 5792 5794 5796 5798 5800 5803 5804 5806 5807 5809 5810 5810 5810 5811 5811 5810 5810 5810 5807 5807 5806 5805 5803 5801 5798 5795 5791 5787 5782 5778 5773 5766 5759 5752 5744
5758 5760 5762 5765 5768 5771 5773 5776 5778 5781 5782 5784 5786 5788 5791 5793 5795 5795 5795 5795 5795 5796 5797 5797 5797 5796 5796 5795 5794 5793 5792 5789 5787 5782 5779 5776 5771 5767 5761 5755 5749 5742 5735
5743 5745 5747 5749 5752 5754 5756 5759 5762 5764 5766 5769 5772 5774 5776 5778 5779 5780 5780 5780 5780 5781 5782 5783 5783 5783 5783 5782 5781 5779 5778 5776 5773 5770 5767 5763 5759 5754 5749 5744 5737 5730 5724
5728 5729 5731 5733 5735 5737 5739 5741 5744 5746 5749 5752 5755 5758 5760 5763 5764 5764 5764 5764 5766 5766 5767 5768 5769 5769 5769 5767 5766 5765 5764 5762 5759 5757 5753 5749 5746 5742 5737 5731 5724 5718 5712
5713 5713 5714 5715 5718 5720 5722 5724 5726 5728 5731 5734 5736 5739 5742 5745 5746 5747 5747 5747 5750 5752 5752 5753 5754 5754 5754 5751 5749 5749 5749 5747 5744 5741 5738 5734 5731 5729 5724 5718 5711 5706 5701
5694 5696 5697 5698 5700 5702 5704 5706 5708 5710 5713 5716 5718 5721 5723 5727 5727 5728 5728 5728 5731 5734 5735 5737 5738 5738 5738 5736 5733 5732 5731 5732 5727 5724 5723 5720 5717 5714 5710 5703 5696 5693 5687
5675 5677 5679 5680 5682 5684 5686 5687 5690 5692 5695 5697 5700 5702 5705 5707 5708 5708 5709 5709 5713 5713 5716 5718 5719 5720 5720 5719 5717 5714 5716 5713 5711 5709 5707 5706 5703 5699 5694 5688 5683 5679 5674
5654 5657 5658 5660 5662 5664 5667 5670 5671 5673 5676 5679 5681 5684 5685 5688 5689 5690 5689 5691 5691 5693 5697 5698 5699 5701 5701 5702 5701 5699 5696 5696 5695 5695 5694 5692 5689 5685 5678 5672 5669 5665 5661
5632 5635 5637 5639 5642 5644 5646 5650 5652 5654 5657 5659 5662 5666 5667 5668 5670 5670 5670 5672 5671 5673 5677 5678 5680 5682 5684 5682 5683 5682 5680 5679 5681 5680 5679 5677 5674 5669 5663 5658 5654 5650 5646
5609 5610 5614 5619 5621 5623 5625 5628 5632 5635 5637 5639 5642 5645 5648 5649 5649 5648 5650 5651 5652 5653 5656 5658 5661 5663 5665 5666 5667 5664 5664 5663 5663 5662 5661 5659 5655 5651 5648 5644 5640 5636 5633
5583 5589 5592 5595 5599 5602 5605 5607 5609 5614 5615 5618 5622 5623 5626 5630 5628 5628 5629 5630 5632 5632 5633 5637 5640 5642 5644 5646 5648 5647 5643 5642 5644 5643 5642 5640 5637 5634 5632 5628 5625 5622 5619
5558 5563 5567 5570 5573 5577 5581 5586 5588 5591 5593 5596 5600 5601 5604 5607 5605 5606 5608 5609 5611 5612 5616 5617 5618 5621 5623 5624 5625 5626 5624 5622 5623 5624 5623 5621 5620 5617 5616 5615 5612 5609 5605
5533 5537 5542 5545 5546 5550 5555 5560 5566 5569 5569 5574 5576 5578 5580 5584 5583 5584 5585 5586 5589 5592 5595 5596 5598 5600 5602 5604 5605 5607 5607 5606 5605 5606 5605 5604 5603 5602 5601 5599 5596 5592 5589
5506 5513 5516 5517 5519 5522 5525 5530 5535 5540 5545 5549 5549 5552 5555 5557 5559 5560 5562 5564 5569 5570 5574 5576 5578 5581 5583 5585 5586 5588 5589 5589 5589 5589 5588 5588 5587 5586 5585 5583 5580 5576 5573
5481 5488 5488 5489 5494 5498 5501 5503 5506 5510 5514 5521 5526 5527 5530 5530 5532 5536 5536 5541 5545 5548 5551 5555 5557 5560 5563 5565 5566 5568 5569 5570 5571 5571 5571 5571 5571 5570 5569 5567 5563 5560 5557
5452 5457 5458 5459 5464 5468 5471 5474 5477 5479 5486 5492 5496 5504 5505 5501 5507 5510 5512 5515 5520 5525 5528 5532 5535 5538 5542 5546 5547 5548 5549 5551 5552 5552 5553 5552 5553 5552 5551 5548 5546 5544 5541
5436 5439 5438 5438 5439 5439 5440 5443 5448 5450 5454 5458 5466 5471 5472 5470 5478 5483 5486 5490 5494 5498 5502 5506 5510 5514 5518 5523 5526 5527 5529 5530 5532 5532 5533 5534 5535 5533 5531 5528 5527 5526 5523
5422 5423 5424 5424 5424 5423 5422 5422 5422 5424 5427 5429 5433 5438 5441 5440 5445 5451 5456 5462 5468 5471 5475 5481 5485 5489 5493 5497 5501 5503 5506 5509 5511 5512 5512 5513 5513 5512 5511 5510 5508 5506 5504
5412 5411 5410 5410 5409 5409 5409 5408 5407 5407 5407 5406 5406 5408 5410 5410 5413 5418 5424 5430 5435 5443 5448 5452 5459 5464 5467 5471 5477 5480 5483 5486 5488 5489 5490 5491 5492 5492 5490 5490 5489 5488 5487
5401 5399 5398 5397 5395 5394 5393 5393 5391 5390 5389 5387 5385 5384 5383 5381 5384 5389 5393 5396 5403 5414 5422 5427 5433 5439 5442 5446 5450 5455 5459 5462 5464 5466 5467 5469 5470 5470 5469 5470 5469 5469 5468
5390 5388 5387 5385 5383 5380 5378 5376 5374 5373 5371 5370 5369 5367 5365 5361 5360 5359 5363 5366 5373 5381 5391 5402 5408 5414 5421 5426 5428 5432 5437 5441 5441 5443 5446 5447 5448 5449 5450 5450 5451 5452 5451
5380 5377 5374 5372 5368 5366 5364 5360 5359 5357 5353 5351 5350 5351 5347 5343 5340 5338 5340 5343 5349 5354 5360 5370 5383 5393 5399 5405 5410 5409 5414 5418 5421 5424 5425 5427 5428 5429 5431 5433 5434 5433 5432
Wind_Speed
37 36 37 37 34 33 33 37 40 43 42 38 37 37 36 35 34 34 34 34 33 33 32 32 32 34 34 35 35 36 36 37 38 42 44 47 47 49 51 51 52 53 55
40 40 39 41 38 35 35 37 41 42 44 41 40 41 41 40 40 39 39 39 39 38 38 36 36 37 37 37 38 38 38 39 40 42 46 49 49 52 53 53 53 55 57
42 42 43 43 44 41 40 41 43 45 46 46 45 44 44 44 45 45 44 44 44 43 42 41 41 42 41 41 41 41 41 42 42 43 46 49 50 52 53 55 56 56 58
45 45 44 46 47 48 47 46 46 49 51 51 50 49 49 50 50 50 49 48 47 47 46 46 45 45 45 45 44 43 43 45 43 45 47 49 51 53 53 56 58 58 60
48 49 49 49 49 50 52 52 52 53 54 55 55 55 55 54 54 53 53 53 52 50 50 49 48 48 49 48 46 45 45 46 46 47 49 51 52 54 55 57 59 59 60
50 51 51 52 53 53 53 54 55 57 58 59 59 58 59 59 58 56 55 55 53 53 51 50 50 50 49 49 47 46 46 47 48 49 51 52 54 55 56 58 61 60 60
52 53 54 54 54 55 56 56 57 59 60 60 61 61 60 59 58 56 55 55 54 52 52 51 51 50 49 49 48 47 47 47 49 51 53 55 56 57 57 59 62 61 62
53 55 56 56 56 57 58 58 59 60 61 63 63 62 62 62 60 58 58 58 57 57 57 56 55 54 53 51 50 49 48 49 51 54 57 58 59 58 58 61 65 63 63
55 55 56 58 58 58 60 60 61 61 61 62 63 64 64 63 63 62 62 62 61 60 59 59 59 57 55 53 53 53 53 54 55 57 60 61 61 59 59 62 66 63 64
62 61 60 60 59 60 61 62 63 63 63 63 64 65 65 65 65 65 65 65 64 62 61 60 59 58 58 57 57 57 59 57 60 63 63 62 62 59 60 64 66 64 64
68 66 65 65 65 64 62 62 63 64 65 65 65 65 67 68 68 68 68 67 66 67 66 65 63 62 61 62 62 63 62 63 64 65 65 63 61 60 61 65 66 64 62
70 69 69 68 68 67 67 66 65 65 64 66 66 66 66 67 69 71 71 71 71 71 69 68 67 67 66 65 65 66 66 67 66 66 65 63 61 59 64 67 65 63 61
71 71 72 72 71 72 70 69 68 69 68 68 67 66 67 67 67 68 70 72 72 72 70 70 69 68 67 68 67 67 68 68 66 65 63 62 64 65 66 66 64 62 60
75 76 74 71 72 72 71 72 73 72 70 71 68 66 68 68 69 70 70 70 71 72 72 72 72 72 70 68 66 66 65 65 65 66 66 65 63 64 65 63 61 60 59
83 80 80 80 78 76 74 73 72 71 71 69 69 70 69 70 71 70 69 67 68 70 71 71 71 72 71 70 68 68 69 68 67 66 65 64 64 63 61 61 59 59 59
85 86 84 83 83 81 78 76 75 76 75 75 73 72 71 70 71 72 72 72 71 69 67 67 68 70 70 69 67 67 67 67 66 64 63 62 62 61 60 59 59 59 60
81 82 82 84 86 89 88 85 81 78 80 77 76 76 76 74 74 73 72 72 71 69 67 67 67 67 67 66 64 62 62 62 62 60 59 59 60 60 59 58 59 60 62
81 79 79 81 82 84 85 85 86 87 85 83 83 80 79 78 78 77 77 74 72 71 69 67 68 67 66 63 61 58 56 57 57 57 58 60 61 60 60 61 61 63 61
82 81 81 82 82 81 81 82 84 83 83 84 83 83 83 83 82 82 82 80 76 75 74 73 70 70 68 65 62 60 58 57 57 59 59 61 61 61 59 62 63 61 62
63 70 75 79 82 82 83 83 82 83 81 80 82 81 81 86 84 84 86 85 81 79 78 76 76 74 72 68 65 63 62 62 62 62 64 65 63 62 63 63 62 61 63
42 43 45 49 55 61 67 74 76 78 84 86 83 82 83 85 86 87 89 90 88 85 85 83 81 80 78 76 72 69 67 66 66 65 66 68 67 66 64 62 62 61 63
30 30 33 35 35 35 37 42 47 54 62 71 78 81 81 85 86 87 90 93 95 96 91 90 87 85 83 82 80 77 71 68 66 66 67 67 68 65 64 66 66 62 63
33 33 34 33 32 34 34 38 42 42 45 48 57 69 75 80 84 87 88 90 92 90 88 90 91 90 90 90 86 84 81 77 75 75 67 70 72 71 66 63 63 61 62
36 36 34 34 37 40 42 44 47 48 48 48 47 50 63 71 77 82 87 90 90 85 84 82 85 92 95 92 91 87 86 81 73 69 70 64 63 62 61 60 59 61 59
32 35 37 40 40 42 44 38 38 44 46 46 43 43 46 52 67 74 78 80 88 91 89 83 83 82 83 77 70 71 73 65 60 60 64 64 61 61 61 61 57 54 52
36 38 40 37 38 39 40 42 41 42 43 45 44 47 42 40 43 52 64 67 59 66 78 84 85 71 73 70 60 56 55 57 62 57 52 54 59 63 58 50 52 54 62
Wind_Direction
253 250 247 248 249 246 240 231 228 229 233 237 242 244 247 251 256 260 265 269 271 274 278 280 283 284 286 288 290 292 296 299 303 307 311 314 318 322 326 328 326 325 326
253 255 250 248 246 243 238 236 234 235 236 240 244 248 251 255 260 264 268 271 274 276 278 281 283 285 286 288 288 290 293 296 300 304 308 312 318 321 324 325 324 323 324
251 252 253 252 251 245 240 237 235 235 237 241 244 246 251 256 260 264 267 271 275 278 280 283 283 284 286 287 287 289 291 293 297 301 305 310 315 318 321 321 321 320 322
250 251 250 251 253 252 245 240 238 239 240 244 247 249 251 255 259 263 267 269 272 275 278 279 281 282 283 284 286 287 289 291 295 299 303 307 312 315 318 317 318 318 321
251 250 250 251 251 252 254 251 246 242 243 245 247 251 253 255 259 263 267 269 270 272 274 276 279 280 281 284 286 287 289 291 294 297 301 303 308 313 313 315 316 316 318
251 251 250 250 251 251 252 254 256 255 252 250 250 252 255 258 261 262 263 265 267 270 271 274 276 279 281 284 286 287 287 290 292 295 297 301 304 309 310 312 313 314 316
252 252 252 251 250 251 251 251 253 255 257 258 258 257 257 257 259 261 262 263 265 267 269 271 274 278 280 282 283 284 285 287 289 291 294 297 301 306 307 309 310 311 313
257 255 253 253 252 251 251 251 251 252 254 256 257 260 262 263 262 262 263 264 265 267 269 271 273 275 278 279 281 282 282 284 286 288 291 294 299 303 304 305 308 308 310
259 260 258 256 255 254 253 253 252 252 253 254 255 256 258 260 261 261 261 264 266 269 271 273 275 276 277 275 276 278 279 281 282 284 287 291 296 300 301 303 305 306 308
258 258 259 259 258 257 255 254 254 254 253 253 254 256 256 257 258 259 259 260 262 265 266 268 270 272 272 271 272 273 275 277 278 281 286 290 295 299 299 301 301 303 305
255 256 257 258 258 258 258 257 256 256 255 254 254 255 256 256 256 256 257 257 259 260 262 264 265 266 267 268 269 270 273 273 277 281 285 291 293 295 296 296 297 301 300
256 256 255 256 257 258 258 258 259 258 258 257 257 255 256 257 259 259 259 259 260 260 261 262 263 264 266 267 269 270 271 273 277 281 285 288 291 292 291 292 295 296 298
257 256 255 254 254 256 257 258 258 259 259 258 258 258 257 257 258 260 260 261 261 262 263 263 264 265 266 268 270 271 271 274 278 282 285 285 287 288 288 289 291 292 296
257 257 255 256 256 256 256 256 255 256 258 259 259 260 260 260 260 259 260 261 262 264 264 264 264 265 266 268 270 273 275 276 278 279 281 282 282 282 283 286 286 291 295
257 257 259 258 256 256 257 257 257 256 256 258 259 258 259 261 261 262 261 261 263 264 265 267 268 269 268 268 269 270 272 273 275 276 277 278 278 279 280 281 285 289 293
260 258 257 258 258 257 255 255 257 257 258 259 259 259 258 259 259 261 262 262 263 264 266 267 268 269 268 268 268 268 269 271 273 274 274 274 275 276 277 280 286 289 292
262 261 260 259 259 258 257 256 255 257 258 258 259 260 260 259 260 261 262 263 262 263 264 266 267 267 266 267 267 268 270 271 273 274 275 274 275 275 278 281 284 287 289
261 261 261 260 259 260 260 259 258 256 255 257 258 258 258 259 260 260 261 264 264 263 263 265 266 265 266 267 268 269 271 273 274 274 274 274 274 275 278 283 285 286 288
265 263 262 261 262 261 261 261 261 259 258 257 256 258 258 257 257 258 260 261 263 262 262 262 263 264 263 263 265 267 268 269 270 272 273 273 275 277 279 284 285 286 289
268 265 264 263 262 262 261 260 260 261 260 259 258 255 253 254 255 255 256 258 260 262 261 261 261 262 261 261 263 263 264 266 268 270 272 273 273 275 279 282 283 286 290
279 278 277 276 273 270 268 266 264 262 261 260 257 255 255 253 251 251 252 254 257 260 261 260 259 259 259 259 258 260 261 263 266 268 271 274 275 278 277 277 280 285 286
276 274 273 274 272 272 273 273 272 269 264 261 261 259 255 254 254 251 249 249 252 256 259 256 257 257 257 258 258 258 259 263 268 271 272 273 275 273 274 280 282 281 282
286 284 281 282 277 275 274 276 275 275 277 278 266 258 257 254 252 252 251 250 250 251 253 253 252 255 258 259 259 260 262 266 269 274 275 273 271 274 278 279 277 280 280
285 290 290 285 280 278 276 283 281 276 278 277 276 270 258 254 254 252 251 251 248 246 249 251 252 253 255 260 263 266 269 269 270 270 274 273 271 270 272 274 273 275 279
290 287 282 287 285 288 283 280 284 280 271 271 273 280 281 277 261 256 253 253 252 249 245 245 252 256 258 263 260 264 266 268 266 267 271 268 267 268 267 266 273 276 273
293 291 290 294 294 287 284 277 285 290 283 268 269 279 283 278 275 270 264 261 262 254 249 252 244 249 247 248 254 258 267 272 270 267 266 267 265 265 267 270 267 266 270